Idabel, OK

5:46 PM CST on December 04, 2016 (GMT -0600)
Idabel

Weather History for K4O4 - January, 2014

Change the Weather History Date:

Saturday, January 4, 2014

  Actual Average (KDEQ) Record (KDEQ)
Temperature  
Mean Temperature 48 °F 42 °F  
Max Temperature 62 °F 53 °F 76 °F (1955)
Min Temperature 33 °F 30 °F 8 °F (1947)
Degree Days  
Heating Degree Days 18 23  
Month to date heating degree days 92  
Since 1 July heating degree days 1301  
Cooling Degree Days 0 0  
Month to date cooling degree days 0  
Year to date cooling degree days 0  
Moisture  
Dew Point 35 °F    
Average Humidity 67    
Maximum Humidity 81    
Minimum Humidity 52    
Precipitation  
Precipitation 0.00 in 0.11 in 2.92 in (1993)
Month to date precipitation 0.45  
Year to date precipitation 0.45  
Snow  
Snow 0.00 in - - ()
Month to date snowfall  
Since 1 July snowfall  
Snow Depth -    
Sea Level Pressure  
Sea Level Pressure 29.92 in    
Wind  
Wind Speed 10 mph (SSE)    
Max Wind Speed 20 mph    
Max Gust Speed 26 mph    
Visibility 10 miles    
Events      
T = Trace of Precipitation, MM = Missing Value Source: NWS Daily Summary

Daily Weather History Graph

Daily Weather History Graph

Search for Another Location

Airport or City:

Trip Planner

Search our weather history database for the weather conditions in past years. The results will help you decide how hot, cold, wet, or windy it might be!

Date:

Astronomy

Jan. 04, 2014 Rise Set
Actual Time 7:25 AM CST 5:23 PM CST
Civil Twilight 6:57 AM CST 5:51 PM CST
Nautical Twilight 6:26 AM CST 6:22 PM CST
Astronomical Twilight 5:56 AM CST 6:52 PM CST
Moon 9:42 AM CST 9:32 PM CST
Length of Visible Light 10h 53m
Length of Day
9h 58m
Waxing Crescent, 15% of the Moon is Illuminated
Jan 4
Waxing Crescent
Jan 7
First Quarter
Jan 15
Full
Jan 23
Last Quarter
Jan 30
New

Hourly Weather History & Observations

Time (CST) Temp. Windchill Dew Point Humidity Pressure Visibility Wind Dir Wind Speed Gust Speed Precip Events Conditions
12:00 AM 33.8 °F 25.8 °F 21.2 °F 60% 30.12 in 10.0 mi SE 10.4 mph - N/A   Clear
12:19 AM 33.8 °F 26.4 °F 21.2 °F 60% 30.12 in 10.0 mi SE 9.2 mph - N/A   Clear
12:39 AM 33.8 °F 27.0 °F 21.2 °F 60% 30.12 in 10.0 mi SE 8.1 mph - N/A   Clear
12:59 AM 33.8 °F 27.7 °F 21.2 °F 60% 30.11 in 10.0 mi SE 6.9 mph - N/A   Clear
1:19 AM 33.8 °F 27.0 °F 21.2 °F 60% 30.10 in 10.0 mi SE 8.1 mph - N/A   Clear
1:39 AM 33.8 °F 27.0 °F 21.2 °F 60% 30.10 in 10.0 mi SE 8.1 mph - N/A   Clear
1:59 AM 33.8 °F 27.0 °F 21.2 °F 60% 30.10 in 10.0 mi SE 8.1 mph - N/A   Clear
2:19 AM 33.8 °F 26.4 °F 21.2 °F 60% 30.09 in 10.0 mi SE 9.2 mph - N/A   Clear
2:39 AM 33.8 °F 26.4 °F 21.2 °F 60% 30.09 in 10.0 mi SE 9.2 mph - N/A   Clear
2:59 AM 33.8 °F 26.4 °F 23.0 °F 65% 30.08 in 10.0 mi SE 9.2 mph - N/A   Clear
3:19 AM 33.8 °F 26.4 °F 23.0 °F 65% 30.07 in 10.0 mi SE 9.2 mph - N/A   Clear
3:39 AM 33.8 °F 25.8 °F 23.0 °F 65% 30.07 in 10.0 mi SE 10.4 mph - N/A   Clear
3:59 AM 33.8 °F 25.8 °F 23.0 °F 65% 30.06 in 10.0 mi SE 10.4 mph - N/A   Clear
4:19 AM 33.8 °F 24.8 °F 24.8 °F 70% 30.05 in 10.0 mi SSE 12.7 mph - N/A   Clear
4:39 AM 33.8 °F 25.8 °F 24.8 °F 70% 30.05 in 10.0 mi SSE 10.4 mph 17.3 mph N/A   Clear
4:59 AM 33.8 °F 25.3 °F 24.8 °F 70% 30.04 in 10.0 mi SSE 11.5 mph 17.3 mph N/A   Clear
5:19 AM 33.8 °F 25.8 °F 24.8 °F 70% 30.04 in 10.0 mi SSE 10.4 mph - N/A   Clear
5:39 AM 33.8 °F 26.4 °F 24.8 °F 70% 30.04 in 10.0 mi SSE 9.2 mph - N/A   Clear
5:59 AM 33.8 °F 25.8 °F 26.6 °F 75% 30.03 in 10.0 mi SSE 10.4 mph - N/A   Clear
6:19 AM 33.8 °F 25.8 °F 26.6 °F 75% 30.03 in 10.0 mi SSE 10.4 mph - N/A   Mostly Cloudy
6:35 AM 33.8 °F 27.0 °F 28.4 °F 81% 30.02 in 10.0 mi SE 8.1 mph 18.4 mph N/A   Overcast
6:55 AM 33.8 °F 24.8 °F 28.4 °F 81% 30.02 in 10.0 mi SSE 12.7 mph 17.3 mph N/A   Overcast
7:15 AM 33.8 °F 27.0 °F 28.4 °F 81% 30.02 in 10.0 mi SSE 8.1 mph - N/A   Overcast
7:35 AM 33.8 °F 25.8 °F 28.4 °F 81% 30.02 in 10.0 mi SE 10.4 mph - N/A   Overcast
7:55 AM 33.8 °F 27.0 °F 28.4 °F 81% 30.02 in 10.0 mi SE 8.1 mph - N/A   Overcast
8:15 AM 33.8 °F 26.4 °F 28.4 °F 81% 30.02 in 10.0 mi SE 9.2 mph - N/A   Overcast
8:35 AM 35.6 °F 29.9 °F 28.4 °F 75% 30.01 in 10.0 mi SE 6.9 mph - N/A   Overcast
8:55 AM 35.6 °F 29.2 °F 30.2 °F 81% 30.01 in 10.0 mi ESE 8.1 mph - N/A   Overcast
9:15 AM 35.6 °F 28.0 °F 30.2 °F 81% 30.00 in 10.0 mi SE 10.4 mph - N/A   Overcast
9:35 AM 37.4 °F 30.8 °F 32.0 °F 81% 30.00 in 10.0 mi SE 9.2 mph - N/A   Overcast
9:55 AM 37.4 °F 30.8 °F 32.0 °F 81% 30.00 in 10.0 mi SE 9.2 mph - N/A   Mostly Cloudy
10:15 AM 39.2 °F 35.0 °F 32.0 °F 75% 30.01 in 10.0 mi SE 5.8 mph - N/A   Mostly Cloudy
10:35 AM 39.2 °F 33.6 °F 32.0 °F 75% 29.98 in 10.0 mi ESE 8.1 mph - N/A   Mostly Cloudy
10:55 AM 41.0 °F 35.2 °F 32.0 °F 70% 29.97 in 10.0 mi ESE 9.2 mph - N/A   Mostly Cloudy
11:15 AM 42.8 °F 37.5 °F 33.8 °F 70% 29.96 in 10.0 mi SE 9.2 mph - N/A   Mostly Cloudy
11:35 AM 42.8 °F 38.6 °F 33.8 °F 70% 29.94 in 10.0 mi SE 6.9 mph - N/A   Mostly Cloudy
11:55 AM 44.6 °F 42.2 °F 35.6 °F 71% 29.93 in 10.0 mi ESE 4.6 mph - N/A   Mostly Cloudy
12:15 PM 46.4 °F 41.5 °F 37.4 °F 71% 29.90 in 7.0 mi SSE 10.4 mph - N/A   Mostly Cloudy
12:35 PM 50.0 °F - 37.4 °F 62% 29.88 in 10.0 mi SSE 12.7 mph 17.3 mph N/A   Overcast
12:55 PM 51.8 °F - 39.2 °F 62% 29.86 in 10.0 mi SSE 11.5 mph 17.3 mph N/A   Overcast
1:15 PM 51.8 °F - 41.0 °F 67% 29.84 in 10.0 mi SSE 11.5 mph - N/A   Overcast
1:35 PM 55.4 °F - 41.0 °F 58% 29.82 in 10.0 mi South 11.5 mph - N/A   Mostly Cloudy
1:55 PM 59.0 °F - 42.8 °F 55% 29.81 in 10.0 mi South 17.3 mph 24.2 mph N/A   Mostly Cloudy
2:15 PM 59.0 °F - 42.8 °F 55% 29.80 in 10.0 mi South 12.7 mph - N/A   Mostly Cloudy
2:35 PM 59.0 °F - 44.6 °F 59% 29.79 in 10.0 mi South 10.4 mph - N/A   Mostly Cloudy
2:55 PM 60.8 °F - 44.6 °F 55% 29.79 in 10.0 mi South 18.4 mph 26.5 mph N/A   Mostly Cloudy
3:15 PM 62.6 °F - 44.6 °F 52% 29.79 in 10.0 mi SSW 16.1 mph 19.6 mph N/A   Scattered Clouds
3:35 PM 62.6 °F - 44.6 °F 52% 29.78 in 10.0 mi South 19.6 mph 25.3 mph N/A   Scattered Clouds
3:55 PM 62.6 °F - 44.6 °F 52% 29.78 in 10.0 mi South 18.4 mph 24.2 mph N/A   Scattered Clouds
4:15 PM 62.6 °F - 44.6 °F 52% 29.78 in 10.0 mi South 16.1 mph 20.7 mph N/A   Scattered Clouds
4:35 PM 62.6 °F - 44.6 °F 52% 29.79 in 10.0 mi South 13.8 mph 17.3 mph N/A   Scattered Clouds
4:55 PM 60.8 °F - 44.6 °F 55% 29.79 in 10.0 mi South 15.0 mph - N/A   Clear
5:15 PM 60.8 °F - 44.6 °F 55% 29.79 in 10.0 mi South 9.2 mph - N/A   Scattered Clouds
5:35 PM 57.2 °F - 44.6 °F 63% 29.79 in 10.0 mi SSE 6.9 mph - N/A   Scattered Clouds
5:55 PM 57.2 °F - 44.6 °F 63% 29.79 in 10.0 mi SSE 8.1 mph - N/A   Mostly Cloudy
6:15 PM 59.0 °F - 44.6 °F 59% 29.80 in 10.0 mi SSE 8.1 mph - N/A   Overcast
6:35 PM 59.0 °F - 44.6 °F 59% 29.80 in 10.0 mi SSE 8.1 mph - N/A   Overcast
6:55 PM 57.2 °F - 44.6 °F 63% 29.81 in 10.0 mi SSE 9.2 mph - N/A   Overcast
7:15 PM 57.2 °F - 46.4 °F 67% 29.81 in 10.0 mi SSE 8.1 mph - N/A   Overcast
7:35 PM 57.2 °F - 46.4 °F 67% 29.80 in 10.0 mi SSE 10.4 mph - N/A   Mostly Cloudy
7:55 PM 57.2 °F - 46.4 °F 67% 29.80 in 10.0 mi SSE 11.5 mph - N/A   Mostly Cloudy
8:15 PM 57.2 °F - 46.4 °F 67% 29.81 in 10.0 mi SSE 12.7 mph - N/A   Mostly Cloudy
8:35 PM 57.2 °F - 46.4 °F 67% 29.80 in 10.0 mi SSE 11.5 mph - N/A   Mostly Cloudy
8:55 PM 55.4 °F - 46.4 °F 72% 29.80 in 10.0 mi SSE 10.4 mph - N/A   Mostly Cloudy
9:15 PM 55.4 °F - 46.4 °F 72% 29.80 in 10.0 mi SSE 12.7 mph - N/A   Mostly Cloudy
9:35 PM 55.4 °F - 46.4 °F 72% 29.81 in 10.0 mi SSE 10.4 mph - N/A   Mostly Cloudy
9:55 PM 55.4 °F - 46.4 °F 72% 29.81 in 10.0 mi SSE 10.4 mph - N/A   Overcast
10:15 PM 55.4 °F - 46.4 °F 72% 29.81 in 10.0 mi SSE 9.2 mph - N/A   Scattered Clouds
10:35 PM 53.6 °F - 46.4 °F 77% 29.80 in 10.0 mi SSE 10.4 mph - N/A   Mostly Cloudy
10:55 PM 53.6 °F - 46.4 °F 77% 29.80 in 10.0 mi SSE 8.1 mph - N/A   Overcast
11:15 PM 53.6 °F - 46.4 °F 77% 29.80 in 10.0 mi SSE 6.9 mph - N/A   Mostly Cloudy
11:35 PM 53.6 °F - 46.4 °F 77% 29.79 in 10.0 mi SSE 8.1 mph - N/A   Mostly Cloudy
11:55 PM 53.6 °F - 46.4 °F 77% 29.79 in 10.0 mi SE 5.8 mph - N/A   Mostly Cloudy